LiveATC.Net - Listen to live air traffic control over the Internet!


ICAO: CYYJ  IATA: YYJ   Airport: Victoria International Airport
City: Victoria   State/Province: British Columbia
Country: Canada   Continent: North America
CYYJ METAR Weather: CYYJ 240500Z 07005KT 20SM FEW050 BKN150 BKN180 14/11 A2983 RMK SC1AC5AC2 SC TR SLP103 DENSITY ALT 100FT
CYYJ Flight Activity (FlightAware)

CYYJ Gnd/Twr
Feed Status: UP   Listeners: 0
Listen in your browser - HTML5 player (in browser, HTML5)
Click here to listen with your own player (launches your MP3 player)
CYYJ Gnd/Twr Audio Archives
FacilityFrequency
Victoria Ground121.900
Victoria Tower (Inner)119.700
Victoria Tower (Outer)119.100
Feed sponsored by: Victoria Flying Club

NOTICE

Unauthorized use prohibited. See LiveATC.net Terms of Service


Find LiveATC Audio Streams


Airport/ARTCC Code

Frequency Search
(e.g., 124.400, 128.75)
Site-wide search
 


Browse LiveATC Feeds
Top 50 LiveATC Feeds
LiveATC Feed Map
Bad Weather Areas

LiveATC FAQ
Offer LiveATC feed
Contact LiveATC.net
Press Inquiries

LiveATC on iPhone
LiveATC on Android

Windows Phone
Windows 8/10

LiveATC Mobile
(Mobile browser)

ATC Audio Archives
Interesting Recordings

LiveATC Forums


Home Page
About LiveATC.net
Make a Donation
Terms of Use
Privacy Policy

Canadian Air Freqs

AIRMETs/SIGMETs

FAA Airport Status
Nat'l Airspace Status
Arrival Demand Charts


Server Software By:
Icecast.org
Liquidsoap